Content
SEND FEEDBACK

Daily
Averages
Monthly
Summary
United States of America

DEDEDO, GUAM


Home > North America > United States > Guam
Elevation: 364 feet     Latitude: 13 33N     Longitude: 144 49E

WEATHER
 
SELECT A DAY
Number of Records: 208,807;   Date Range: 1/1/95 - 7/7/14
 
SHARE

PRINT THIS DATA

[ ← Previous Day ]
WEATHER ALMANAC - JANUARY 17, 2014
[ Next Day → ]
[ °C ]   °F
Weather ElementAverageHighLow
Temperature79.2 °F84 °F (11:54 am)75.2 °F (4:44 pm)
Dewpoint73.7 °F77 °F (12:25 pm)71.1 °F (1:54 pm)
Humidity83.5 %94 % (4:44 pm)69 % (1:54 pm)
Barometer29.83 in29.90 in (10:00 am)29.78 in (1:54 pm)
Wind Speed10.6 mph19.6 mph (12:25 pm)
Wind Gust29.9 mph (2:49 pm)
Weather ElementAverage
Visibility8.8 mi
Wind DirectionENE (79.7 °)

Weather ElementTotal
Precipitation0.19 in
Cooling Degree Days14.6 (Base 65)
Growing Degree Days29.6 (Base 50)
Averaged from 32 records on January 17, 2014
WEATHER CONDITIONS BREAKOUT
WIND DIRECTION BREAKOUT
WEATHER BY HOUR - JANUARY 17, 2014
[ °C ]   °F
Local TimeTemperatureDewpointHumidityBarometerVisibilityWind DirectionWind SpeedGust SpeedPrecipitationEventsConditions
1:54 AM75.9 °F73.0 °F91 %29.83 in10.0 miCalmScattered Clouds
2:54 AM75.9 °F73.0 °F91 %29.81 in10.0 miCalmPartly Cloudy
3:54 AM78.1 °F73.0 °F84 %29.81 in10.0 miENE (70°)6.9 mphClear
4:54 AM78.1 °F72.0 °F81 %29.81 in10.0 miENE (60°)10.4 mphPartly Cloudy
5:54 AM78.1 °F72.0 °F81 %29.83 in10.0 miENE (60°)9.2 mphScattered Clouds
6:54 AM78.1 °F72.0 °F81 %29.84 in10.0 miEast (80°)8.1 mphPartly Cloudy
7:54 AM80.1 °F73.0 °F79 %29.86 in10.0 miEast (80°)6.9 mphClear
8:54 AM82.0 °F72.0 °F71 %29.87 in10.0 miEast (80°)12.7 mphPartly Cloudy
9:54 AM82.0 °F73.9 °F76 %29.87 in10.0 miEast (100°)8.1 mphScattered Clouds
10:00 AM80.6 °F75.2 °F84 %29.90 in7.0 miNE (50°)16.1 mph25.3 mph0.00 inRainLight Rain
10:13 AM78.8 °F75.2 °F89 %29.90 in7.0 miENE (60°)16.1 mph0.03 inRainLight Rain
10:28 AM80.6 °F75.2 °F84 %29.89 in10.0 miENE (60°)15.0 mph0.03 inMostly Cloudy
10:54 AM82.9 °F75.9 °F79 %29.86 in10.0 miENE (70°)15.0 mph0.03 inScattered Clouds
11:54 AM84.0 °F73.9 °F72 %29.83 in10.0 miEast (90°)13.8 mphPartly Cloudy
12:08 PM78.8 °F75.2 °F89 %29.85 in4.0 miEast (80°)16.1 mph23.0 mph0.00 inRainRain
12:25 PM80.6 °F77.0 °F89 %29.85 in10.0 miEast (80°)19.6 mph23.0 mph0.00 inOvercast
12:38 PM80.6 °F73.4 °F79 %29.84 in10.0 miEast (90°)15.0 mph0.00 inOvercast
12:54 PM81.0 °F73.0 °F77 %29.81 in8.0 miEast (100°)17.3 mph24.2 mph0.00 inRainLight Rain
1:54 PM82.0 °F71.1 °F69 %29.78 in10.0 miESE (110°)11.5 mph0.00 inMostly Cloudy
2:49 PM80.6 °F73.4 °F79 %29.80 in2.5 miESE (110°)19.6 mph29.9 mph0.00 inRainRain
2:54 PM77.0 °F73.9 °F90 %29.78 in3.0 miEast (100°)17.3 mph29.9 mph0.05 inRainHeavy Rain
3:22 PM78.8 °F73.4 °F83 %29.80 in10.0 miESE (110°)10.4 mph20.7 mph0.01 inOvercast
3:54 PM80.1 °F75.0 °F85 %29.78 in10.0 miEast (80°)8.1 mph0.02 inMostly Cloudy
4:44 PM75.2 °F73.4 °F94 %29.82 in4.0 miEast (100°)12.7 mph21.9 mph0.01 inRainLight Rain
4:54 PM75.9 °F73.9 °F94 %29.80 in7.0 miEast (100°)9.2 mph0.01 inRainLight Rain
5:54 PM77.0 °F73.9 °F90 %29.80 in10.0 miSE (130°)6.9 mph0.00 inOvercast
6:54 PM78.1 °F73.0 °F84 %29.81 in10.0 miENE (70°)4.6 mphMostly Cloudy
7:54 PM78.1 °F75.0 °F90 %29.83 in10.0 miEast (90°)3.5 mphMostly Cloudy
8:54 PM78.1 °F73.0 °F84 %29.84 in10.0 miEast (100°)3.5 mph0.00 inMostly Cloudy
9:54 PM79.0 °F75.0 °F88 %29.84 in10.0 miENE (70°)6.9 mphMostly Cloudy
10:54 PM79.0 °F73.9 °F84 %29.84 in10.0 miEast (90°)5.8 mphMostly Cloudy
11:54 PM79.0 °F73.0 °F82 %29.84 in10.0 miEast (80°)13.8 mph0.00 inRainLight Rain
Hourly data recorded from PGUM, located miles away from Dededo, Guam







STORIES FROM OUR PARTNERS